Location: Armstrong
(40.9123°N, 82.0110°W)
Time: 08:15:34
(UTC+00:00)

Aureole 3 Rocket - Pass Details

Date: 29 October 2020
Orbit: 399 x 1739 km, 82.5° (Epoch: 29 November)

Event Time Altitude Azimuth Distance (km) Brightness Sun altitude
Rises 23:23:52 0° 188° (S) 2,584 6.5 -11.3°
Reaches altitude 10° 23:25:42 10° 190° (S) 1,813 5.7 -11.6°
Maximum altitude 23:29:38 83° 278° (W) 677 3.3 -12.4°
Drops below altitude 10° 23:35:09 10° 7° (N) 2,520 6.0 -13.4°
Sets 23:38:04 0° 8° (N) 3,696 6.9 -13.9°
